When you browse on this site, cookies collect data to enhance your experience and personalize the content and advertising you see.
Visit our Privacy Policy to learn more. By continuing to use the site, you agree to this use of cookies and data.
  • In Sweden
  • List of Countries
  • For 7 days
  • Water Temperature
  • Satellite Maps
  • Weather Map
  • Weather Widgets
  • user-avatar
    Login

    Hourly Weather Podole

    Today, 18 January, Friday

    Time Temperature Precipitation Wind Pressure Humidity
    00:00 -2°C° 0.1 mm 7 mps 724 mmHg 89%
    01:00 -2°C° 0.1 mm 6 mps 725 mmHg 88%
    02:00 -2°C° 0.1 mm 6 mps 725 mmHg 88%
    03:00 -2°C° 0 mm 6 mps 725 mmHg 88%
    04:00 -3°C° 0 mm 6 mps 726 mmHg 88%
    05:00 -3°C° 0 mm 6 mps 726 mmHg 88%
    06:00 -3°C° 0 mm 6 mps 727 mmHg 88%
    07:00 -3°C° 0 mm 6 mps 727 mmHg 88%
    08:00 -2°C° 0 mm 5 mps 727 mmHg 88%
    09:00 -2°C° 0 mm 5 mps 728 mmHg 89%
    10:00 -2°C° 0 mm 5 mps 728 mmHg 89%
    11:00 -2°C° 0 mm 5 mps 728 mmHg 89%
    12:00 -2°C° 0.1 mm 5 mps 728 mmHg 90%
    13:00 -2°C° 0.1 mm 5 mps 728 mmHg 90%
    14:00 -2°C° 0.1 mm 4 mps 728 mmHg 91%
    15:00 -2°C° 0.5 mm 5 mps 727 mmHg 91%
    16:00 -1°C° 0.5 mm 5 mps 727 mmHg 92%
    17:00 -1°C° 0.5 mm 5 mps 727 mmHg 92%
    18:00 -2°C° 0.3 mm 6 mps 726 mmHg 90%
    19:00 -2°C° 0.3 mm 6 mps 726 mmHg 88%
    20:00 -2°C° 0.3 mm 7 mps 726 mmHg 87%
    21:00 -4°C° 0.4 mm 6 mps 727 mmHg 89%
    22:00 -6°C° 0.4 mm 6 mps 727 mmHg 91%
    23:00 -8°C° 0.4 mm 5 mps 728 mmHg 93%

    Tomorrow, 19 January, Saturday

    Time Temperature Precipitation Wind Pressure Humidity
    00:00 -8°C° 0.1 mm 5 mps 729 mmHg 92%
    01:00 -9°C° 0.1 mm 4 mps 730 mmHg 92%
    02:00 -9°C° 0.1 mm 3 mps 731 mmHg 91%
    03:00 -10°C° 0 mm 3 mps 732 mmHg 92%
    04:00 -12°C° 0 mm 3 mps 732 mmHg 93%
    05:00 -13°C° 0 mm 3 mps 733 mmHg 95%
    06:00 -14°C° 0 mm 4 mps 733 mmHg 94%
    07:00 -12°C° 0 mm 4 mps 733 mmHg 94%
    08:00 -12°C° 0 mm 4 mps 734 mmHg 94%
    09:00 -12°C° 0 mm 5 mps 734 mmHg 92%
    10:00 -11°C° 0 mm 5 mps 734 mmHg 90%
    11:00 -11°C° 0 mm 5 mps 735 mmHg 89%
    12:00 -10°C° 0 mm 5 mps 735 mmHg 88%
    13:00 -10°C° 0 mm 5 mps 735 mmHg 88%
    14:00 -10°C° 0 mm 5 mps 735 mmHg 87%
    15:00 -10°C° 0 mm 5 mps 735 mmHg 88%
    16:00 -10°C° 0 mm 5 mps 736 mmHg 89%
    17:00 -10°C° 0 mm 5 mps 736 mmHg 89%
    18:00 -10°C° 0 mm 4 mps 736 mmHg 90%
    19:00 -10°C° 0 mm 4 mps 737 mmHg 91%
    20:00 -11°C° 0 mm 4 mps 737 mmHg 91%
    21:00 -11°C° 0 mm 4 mps 737 mmHg 92%
    22:00 -11°C° 0 mm 4 mps 738 mmHg 92%
    23:00 -11°C° 0 mm 4 mps 738 mmHg 93%

    Day after tomorrow, 20 January, Sunday

    Time Temperature Precipitation Wind Pressure Humidity
    00:00 -11°C° 0 mm 4 mps 738 mmHg 93%
    01:00 -10°C° 0 mm 4 mps 738 mmHg 93%
    02:00 -10°C° 0 mm 4 mps 739 mmHg 93%
    03:00 -11°C° 0 mm 5 mps 738 mmHg 92%
    04:00 -11°C° 0 mm 5 mps 738 mmHg 92%
    05:00 -11°C° 0 mm 6 mps 738 mmHg 92%
    06:00 -11°C° 0.1 mm 6 mps 738 mmHg 90%
    07:00 -10°C° 0.1 mm 6 mps 738 mmHg 89%
    08:00 -9°C° 0.1 mm 6 mps 737 mmHg 88%
    09:00 -9°C° 0 mm 6 mps 737 mmHg 88%
    10:00 -8°C° 0 mm 6 mps 737 mmHg 87%
    11:00 -8°C° 0 mm 7 mps 737 mmHg 86%
    12:00 -8°C° 0 mm 7 mps 736 mmHg 86%
    13:00 -8°C° 0 mm 7 mps 736 mmHg 86%
    14:00 -7°C° 0 mm 7 mps 735 mmHg 85%
    15:00 -7°C° 0.2 mm 7 mps 735 mmHg 86%
    16:00 -8°C° 0.2 mm 7 mps 735 mmHg 87%
    17:00 -8°C° 0.2 mm 7 mps 735 mmHg 87%
    18:00 -8°C° 0.1 mm 6 mps 735 mmHg 88%
    19:00 -8°C° 0.1 mm 6 mps 735 mmHg 90%
    20:00 -7°C° 0.1 mm 5 mps 735 mmHg 91%
    21:00 -7°C° 0.2 mm 4 mps 736 mmHg 92%
    22:00 -7°C° 0.2 mm 3 mps 736 mmHg 94%
    23:00 -7°C° 0.2 mm 3 mps 736 mmHg 95%

    21 January, Monday

    Time Temperature Precipitation Wind Pressure Humidity
    00:00 -7°C° 0.3 mm 2 mps 736 mmHg 96%
    01:00 -7°C° 0.3 mm 2 mps 736 mmHg 96%
    02:00 -7°C° 0.3 mm 1 mps 736 mmHg 97%
    03:00 -8°C° 0.2 mm 2 mps 735 mmHg 97%
    04:00 -9°C° 0.2 mm 2 mps 735 mmHg 96%
    05:00 -9°C° 0.2 mm 2 mps 735 mmHg 96%
    06:00 -12°C° 0 mm 2 mps 735 mmHg 96%
    07:00 -13°C° 0 mm 2 mps 735 mmHg 97%
    08:00 -14°C° 0 mm 2 mps 735 mmHg 97%
    09:00 -14°C° 0 mm 2 mps 735 mmHg 96%
    10:00 -15°C° 0 mm 3 mps 736 mmHg 95%
    11:00 -15°C° 0 mm 3 mps 736 mmHg 95%
    12:00 -14°C° 0 mm 3 mps 736 mmHg 93%
    13:00 -14°C° 0 mm 3 mps 736 mmHg 91%
    14:00 -14°C° 0 mm 4 mps 736 mmHg 90%
    15:00 -14°C° 0 mm 3 mps 737 mmHg 90%
    16:00 -14°C° 0 mm 3 mps 737 mmHg 91%
    17:00 -15°C° 0 mm 3 mps 737 mmHg 91%
    18:00 -16°C° 0 mm 3 mps 738 mmHg 92%
    19:00 -16°C° 0 mm 3 mps 738 mmHg 93%
    20:00 -17°C° 0 mm 3 mps 738 mmHg 94%
    21:00 -18°C° 0 mm 3 mps 739 mmHg 95%
    22:00 -18°C° 0 mm 3 mps 739 mmHg 96%
    23:00 -19°C° 0 mm 3 mps 739 mmHg 97%

    22 January, Tuesday

    Time Temperature Precipitation Wind Pressure Humidity
    00:00 -19°C° 0 mm 3 mps 739 mmHg 97%
    01:00 -21°C° 0 mm 3 mps 739 mmHg 98%
    02:00 -21°C° 0 mm 3 mps 739 mmHg 98%
    03:00 -19°C° 0 mm 2 mps 739 mmHg 98%
    04:00 -19°C° 0 mm 2 mps 739 mmHg 98%
    05:00 -20°C° 0 mm 2 mps 740 mmHg 98%
    06:00 -20°C° 0 mm 2 mps 740 mmHg 98%
    07:00 -20°C° 0 mm 2 mps 740 mmHg 98%
    08:00 -20°C° 0 mm 2 mps 740 mmHg 98%
    09:00 -19°C° 0 mm 2 mps 741 mmHg 97%
    10:00 -19°C° 0 mm 3 mps 741 mmHg 96%
    11:00 -18°C° 0 mm 3 mps 741 mmHg 95%
    12:00 -18°C° 0 mm 3 mps 741 mmHg 94%
    13:00 -17°C° 0 mm 3 mps 741 mmHg 94%
    14:00 -16°C° 0 mm 2 mps 742 mmHg 94%
    15:00 -17°C° 0 mm 2 mps 742 mmHg 95%
    16:00 -19°C° 0 mm 2 mps 742 mmHg 96%
    17:00 -20°C° 0 mm 2 mps 742 mmHg 98%
    18:00 -20°C° 0 mm 2 mps 742 mmHg 98%
    19:00 -21°C° 0 mm 2 mps 742 mmHg 99%
    20:00 -21°C° 0 mm 2 mps 742 mmHg 99%
    21:00 -21°C° 0 mm 2 mps 743 mmHg 99%
    22:00 -23°C° 0 mm 2 mps 743 mmHg 99%
    23:00 -23°C° 0 mm 2 mps 743 mmHg 98%

    23 January, Wednesday

    Time Temperature Precipitation Wind Pressure Humidity
    00:00 -23°C° 0 mm 2 mps 743 mmHg 98%
    01:00 -21°C° 0 mm 2 mps 743 mmHg 97%
    02:00 -21°C° 0 mm 2 mps 743 mmHg 96%
    03:00 -21°C° 0 mm 2 mps 743 mmHg 97%
    04:00 -21°C° 0 mm 2 mps 743 mmHg 97%
    05:00 -20°C° 0 mm 2 mps 742 mmHg 97%
    06:00 -20°C° 0 mm 2 mps 743 mmHg 97%
    07:00 -19°C° 0 mm 2 mps 743 mmHg 98%
    08:00 -18°C° 0 mm 2 mps 743 mmHg 98%
    09:00 -16°C° 0 mm 2 mps 743 mmHg 97%
    10:00 -16°C° 0 mm 3 mps 743 mmHg 96%
    11:00 -14°C° 0 mm 3 mps 743 mmHg 94%
    12:00 -14°C° 0 mm 3 mps 743 mmHg 94%
    13:00 -13°C° 0 mm 3 mps 743 mmHg 94%
    14:00 -13°C° 0 mm 3 mps 743 mmHg 94%
    15:00 -13°C° 0 mm 3 mps 743 mmHg 94%
    16:00 -13°C° 0 mm 3 mps 743 mmHg 94%
    17:00 -14°C° 0 mm 3 mps 743 mmHg 94%
    18:00 -14°C° 0 mm 3 mps 743 mmHg 95%
    19:00 -15°C° 0 mm 3 mps 743 mmHg 95%
    20:00 -14°C° 0 mm 2 mps 743 mmHg 95%
    21:00 -16°C° 0 mm 2 mps 743 mmHg 96%
    22:00 -17°C° 0 mm 2 mps 743 mmHg 97%
    23:00 -18°C° 0 mm 2 mps 743 mmHg 98%
    Show more